Peachtree City, GA

12:56 AM EDT on June 24, 2017 (GMT -0400)
Peachtree City-Falcon

Weather History for KFFC - January, 2014

Change the Weather History Date:

Wednesday, January 29, 2014

  Actual Average Record
Temperature  
Mean Temperature 20 °F 44 °F  
Max Temperature 30 °F 55 °F 73 °F (2013)
Min Temperature 10 °F 33 °F 10 °F (2014)
Degree Days  
Heating Degree Days 45 21  
Month to date heating degree days 820 648  
Since 1 July heating degree days 1937 1829  
Cooling Degree Days 0 0  
Month to date cooling degree days 0 0  
Year to date cooling degree days 0 0  
Moisture  
Dew Point 5 °F    
Average Humidity 53    
Maximum Humidity 77    
Minimum Humidity 28    
Precipitation  
Precipitation 0.00 in 0.19 in 0.86 in (2005)
Month to date precipitation 2.38 3.81  
Year to date precipitation 2.38 3.81  
Snow  
Snow 0.00 in - - ()
Month to date snowfall 1.8  
Since 1 July snowfall 1.8  
Snow Depth 0.00 in    
Sea Level Pressure  
Sea Level Pressure 30.33 in    
Wind  
Wind Speed 7 mph (NNW)    
Max Wind Speed 17 mph    
Max Gust Speed 24 mph    
Visibility 10 miles    
Events      
T = Trace of Precipitation, MM = Missing Value Source: NWS Daily Summary

Daily Weather History Graph

Daily Weather History Graph

Search for Another Location

Airport or City:

Trip Planner

Search our weather history database for the weather conditions in past years. The results will help you decide how hot, cold, wet, or windy it might be!

Date:

Astronomy

Jan. 29, 2014 Rise Set
Actual Time 7:36 AM EST 6:07 PM EST
Civil Twilight 7:09 AM EST 6:33 PM EST
Nautical Twilight 6:40 AM EST 7:03 PM EST
Astronomical Twilight 6:10 AM EST 7:32 PM EST
Moon 6:11 AM EST (1/29) 5:05 PM EST (1/29)
Length of Visible Light 11h 23m
Length of Day
10h 30m
Waning Crescent, 2% of the Moon is Illuminated
Jan 29
Waning Crescent
Jan 30
New
Feb 6
First Quarter
Feb 14
Full
Feb 22
Last Quarter

Hourly Weather History & Observations

Time (EST) Temp. Windchill Dew Point Humidity Pressure Visibility Wind Dir Wind Speed Gust Speed Precip Events Conditions
12:53 AM 21.9 °F 11.0 °F 14.0 °F 72% 30.26 in 10.0 mi NNW 10.4 mph - N/A   Overcast
1:53 AM 21.0 °F 7.6 °F 14.0 °F 74% 30.26 in 10.0 mi NNW 15.0 mph - N/A   Overcast
2:53 AM 19.9 °F 7.9 °F 14.0 °F 78% 30.27 in 10.0 mi NNW 11.5 mph - N/A   Clear
3:53 AM 19.0 °F 5.6 °F 10.9 °F 71% 30.27 in 10.0 mi NW 13.8 mph - N/A   Clear
4:53 AM 18.0 °F 4.8 °F 9.0 °F 68% 30.27 in 10.0 mi NNW 12.7 mph - N/A   Clear
5:53 AM 17.1 °F 3.0 °F 7.0 °F 65% 30.29 in 10.0 mi NW 13.8 mph - N/A   Clear
6:53 AM 15.1 °F 1.8 °F 3.0 °F 59% 30.31 in 10.0 mi NNW 11.5 mph 20.7 mph N/A   Clear
7:53 AM 14.0 °F 1.2 °F -0.0 °F 54% 30.33 in 10.0 mi NW 10.4 mph - N/A   Clear
8:53 AM 15.1 °F 1.8 °F 1.0 °F 54% 30.35 in 10.0 mi NNW 11.5 mph - N/A   Clear
9:53 AM 17.1 °F 4.3 °F 1.9 °F 52% 30.38 in 10.0 mi NW 11.5 mph - N/A   Clear
10:53 AM 19.9 °F 8.6 °F 1.0 °F 44% 30.38 in 10.0 mi NNW 10.4 mph - N/A   Clear
11:53 AM 23.0 °F 13.1 °F 1.0 °F 39% 30.38 in 10.0 mi NW 9.2 mph - N/A   Clear
12:53 PM 24.1 °F 16.0 °F 1.0 °F 37% 30.36 in 10.0 mi NNW 6.9 mph - N/A   Clear
1:53 PM 27.0 °F 19.5 °F 3.0 °F 36% 30.34 in 10.0 mi NNW 6.9 mph - N/A   Clear
2:53 PM 28.0 °F 21.7 °F 1.9 °F 33% 30.33 in 10.0 mi West 5.8 mph - N/A   Clear
3:53 PM 30.0 °F 23.2 °F 1.0 °F 29% 30.33 in 10.0 mi North 6.9 mph - N/A   Clear
4:53 PM 28.9 °F 22.8 °F 1.0 °F 30% 30.33 in 10.0 mi NNW 5.8 mph - N/A   Clear
5:53 PM 28.0 °F 24.2 °F 1.0 °F 31% 30.35 in 10.0 mi North 3.5 mph - N/A   Clear
6:53 PM 24.1 °F - 5.0 °F 44% 30.35 in 10.0 mi Calm Calm - N/A   Clear
7:53 PM 19.9 °F - 7.0 °F 57% 30.36 in 10.0 mi Calm Calm - N/A   Clear
8:53 PM 17.1 °F - 8.1 °F 68% 30.36 in 10.0 mi Calm Calm - N/A   Clear
9:53 PM 15.1 °F - 7.0 °F 70% 30.37 in 10.0 mi Calm Calm - N/A   Clear
10:53 PM 12.0 °F - 6.1 °F 77% 30.38 in 10.0 mi Calm Calm - N/A   Clear
11:53 PM 10.0 °F - 6.1 °F 84% 30.38 in 10.0 mi Calm Calm - N/A   Clear